| time (UTC) | temp C | wind direction | speed KPH | gust KPH | rain 1hr cm | rain 24hr cm | rain mn cm | humidity % | barometer mb |
| 20260906031420 | 26 | 215 | 8.0 | 14.5 | 0.00 | 2.87 | 2.87 | 86 | 1012.5 |
| 20260906030431 | 26 | 200 | 12.9 | 14.5 | 0.00 | 2.87 | 2.87 | 86 | 1012.6 |
| 20260906024229 | 26 | 191 | 14.5 | 19.3 | 0.00 | 2.87 | 2.87 | 84 | 1012.7 |
| 20260906023159 | 26 | 188 | 14.5 | 19.3 | 0.00 | 2.87 | 2.87 | 84 | 1012.9 |
| 20260906021012 | 26 | 124 | 3.2 | 12.9 | 0.00 | 2.87 | 2.87 | 83 | 1013.1 |
| 20260906020020 | 26 | 157 | 4.8 | 12.9 | 0.00 | 2.87 | 2.87 | 83 | 1013.1 |
| 20260906013909 | 26 | 165 | 4.8 | 17.7 | 0.00 | 2.87 | 2.87 | 83 | 1013.1 |
| 20260906012843 | 26 | 150 | 9.7 | 25.7 | 0.00 | 2.84 | 2.84 | 85 | 1013.2 |
| 20260906010718 | 26 | 176 | 14.5 | 22.5 | 0.00 | 2.84 | 2.84 | 82 | 1013.1 |
| 20260906004535 | 27 | 200 | 9.7 | 17.7 | 0.00 | 2.79 | 2.79 | 81 | 1012.6 |
| 20260906003512 | 27 | 118 | 8.0 | 14.5 | 0.00 | 2.79 | 2.79 | 76 | 1012.5 |
| 20260906002459 | 27 | 196 | 9.7 | 12.9 | 0.00 | 2.79 | 2.79 | 74 | 1012.5 |
| 20260906001517 | 27 | 198 | 9.7 | 14.5 | 0.00 | 2.79 | 2.79 | 74 | 1012.5 |
| 20260905235359 | 27 | 188 | 11.3 | 16.1 | 0.00 | 2.77 | 2.77 | 80 | 1012.4 |
| 20260905234411 | 26 | 198 | 11.3 | 19.3 | 0.00 | 2.77 | 2.77 | 81 | 1012.5 |
| 20260905233406 | 26 | 176 | 12.9 | 19.3 | 0.00 | 2.77 | 2.77 | 81 | 1012.3 |
| 20260905232349 | 25 | 165 | 8.0 | 14.5 | 0.15 | 2.77 | 2.77 | 83 | 1012.4 |
| 20260905231355 | 25 | 153 | 1.6 | 4.8 | 0.53 | 2.72 | 2.77 | 85 | 1012.4 |
| 20260905230355 | 24 | 219 | 8.0 | 29.0 | 1.73 | 2.59 | 2.62 | 84 | 1013.1 |
| 20260905224228 | 25 | 322 | 33.8 | 54.7 | 2.21 | 0.74 | 0.81 | 83 | 1014.4 |
| 20260905223215 | 27 | 334 | 25.7 | 54.7 | 0.00 | 0.20 | 0.20 | 79 | 1014.4 |
| 20260905222206 | 28 | 36 | 4.8 | 14.5 | 0.00 | 0.20 | 0.20 | 77 | 1012.8 |
| 20260905221201 | 28 | 118 | 4.8 | 14.5 | 0.00 | 0.20 | 0.20 | 76 | 1012.3 |
| 20260905220205 | 28 | 134 | 8.0 | 16.1 | 0.00 | 0.20 | 0.20 | 76 | 1012.3 |
| 20260905215154 | 28 | 98 | 12.9 | 22.5 | 0.00 | 0.20 | 0.20 | 77 | 1011.2 |
| 20260905214133 | 30 | 115 | 9.7 | 22.5 | 0.00 | 0.20 | 0.20 | 71 | 1011.6 |
| 20260905213124 | 30 | 112 | 9.7 | 24.1 | 0.00 | 0.20 | 0.20 | 67 | 1011.7 |
| 20260905212128 | 30 | 146 | 14.5 | 24.1 | 0.00 | 0.20 | 0.20 | 66 | 1011.5 |
| 20260905211120 | 30 | 148 | 12.9 | 22.5 | 0.00 | 0.20 | 0.20 | 70 | 1012.0 |
| 20260905210100 | 31 | 139 | 9.7 | 17.7 | 0.00 | 0.20 | 0.20 | 68 | 1012.0 |
| 20260905205027 | 30 | 105 | 6.4 | 17.7 | 0.00 | 0.20 | 0.20 | 69 | 1012.2 |
| 20260905204027 | 31 | 186 | 9.7 | 20.9 | 0.00 | 0.20 | 0.20 | 69 | 1012.1 |
| 20260905203023 | 30 | 135 | 11.3 | 20.9 | 0.00 | 0.20 | 0.20 | 70 | 1011.9 |
| 20260905202008 | 30 | 92 | 9.7 | 20.9 | 0.00 | 0.20 | 0.20 | 73 | 1011.8 |
| 20260905200950 | 30 | 137 | 11.3 | 20.9 | 0.00 | 0.20 | 0.20 | 77 | 1011.8 |
| 20260905195946 | 31 | 135 | 9.7 | 20.9 | 0.00 | 0.20 | 0.20 | 73 | 1011.9 |
| 20260905194925 | 31 | 74 | 9.7 | 17.7 | 0.00 | 0.20 | 0.20 | 77 | 1012.1 |
| 20260905193932 | 31 | 74 | 6.4 | 16.1 | 0.00 | 0.20 | 0.20 | 77 | 1011.9 |
| 20260905192916 | 31 | 96 | 6.4 | 14.5 | 0.00 | 0.20 | 0.20 | 74 | 1011.9 |
| 20260905191839 | 31 | 46 | 6.4 | 14.5 | 0.00 | 0.20 | 0.20 | 74 | 1012.2 |
| 20260905190830 | 32 | 42 | 3.2 | 14.5 | 0.00 | 0.20 | 0.20 | 71 | 1012.2 |
| 20260905185827 | 31 | 49 | 6.4 | 14.5 | 0.00 | 0.20 | 0.20 | 70 | 1012.2 |
| 20260905184803 | 32 | 122 | 4.8 | 8.0 | 0.00 | 0.20 | 0.20 | 63 | 1012.1 |
| 20260905183752 | 32 | 201 | 1.6 | 9.7 | 0.00 | 0.20 | 0.20 | 62 | 1012.1 |
| 20260905182734 | 31 | 189 | 4.8 | 35.4 | 0.20 | 0.20 | 0.20 | 62 | 1012.2 |
| 20260905181743 | 30 | 68 | 22.5 | 35.4 | 2.39 | 0.10 | 0.15 | 68 | 1012.5 |
| 20260905180801 | 32 | 284 | 9.7 | 16.1 | 0.00 | 0.00 | 0.00 | 63 | 1012.4 |
| 20260905175727 | 32 | 298 | 8.0 | 12.9 | 0.00 | 0.00 | 0.00 | 63 | 1012.5 |
| 20260905173545 | 32 | 241 | 1.6 | 8.0 | 0.00 | 0.00 | 0.00 | 64 | 1012.6 |
| 20260905172509 | 32 | 275 | 1.6 | 3.2 | 0.00 | 0.00 | 0.00 | 66 | 1012.8 |
| 20260905171444 | 32 | 267 | 3.2 | 16.1 | 0.00 | 0.00 | 0.00 | 67 | 1013.1 |
| 20260905170421 | 32 | 238 | 9.7 | 16.1 | 0.00 | 0.00 | 0.00 | 68 | 1013.2 |
| 20260905165406 | 32 | 232 | 9.7 | 16.1 | 0.00 | 0.00 | 0.00 | 66 | 1013.3 |
| 20260905164401 | 32 | 199 | 9.7 | 16.1 | 0.00 | 0.00 | 0.00 | 67 | 1013.5 |
| 20260905163340 | 31 | 226 | 9.7 | 16.1 | 0.00 | 0.00 | 0.00 | 67 | 1013.6 |
| 20260905162358 | 31 | 277 | 9.7 | 14.5 | 0.00 | 0.00 | 0.00 | 69 | 1013.7 |
| 20260905161327 | 31 | 209 | 6.4 | 12.9 | 0.00 | 0.00 | 0.00 | 70 | 1014.0 |
| 20260905160332 | 31 | 244 | 6.4 | 14.5 | 0.00 | 0.00 | 0.00 | 68 | 1014.0 |
| 20260905152955 | 31 | 246 | 12.9 | 19.3 | 0.00 | 0.00 | 0.00 | 71 | 1014.5 |
| 20260905152004 | 30 | 223 | 11.3 | 19.3 | 0.00 | 0.00 | 0.00 | 71 | 1014.5 |
| 20260905150945 | 30 | 234 | 14.5 | 19.3 | 0.00 | 0.00 | 0.00 | 71 | 1014.3 |
| 20260905150006 | 30 | 231 | 12.9 | 22.5 | 0.00 | 0.00 | 0.00 | 74 | 1014.3 |
| 20260905144946 | 30 | 223 | 16.1 | 22.5 | 0.00 | 0.00 | 0.00 | 74 | 1014.3 |
| 20260905144001 | 30 | 217 | 14.5 | 19.3 | 0.00 | 0.00 | 0.00 | 76 | 1014.4 |
| 20260905142934 | 30 | 242 | 14.5 | 19.3 | 0.00 | 0.00 | 0.00 | 75 | 1014.3 |
| 20260905141951 | 30 | 213 | 14.5 | 19.3 | 0.00 | 0.00 | 0.00 | 77 | 1014.4 |
| 20260905140934 | 29 | 202 | 11.3 | 17.7 | 0.00 | 0.00 | 0.00 | 77 | 1014.3 |
| 20260905135905 | 29 | 205 | 11.3 | 14.5 | 0.00 | 0.00 | 0.00 | 77 | 1014.4 |
| 20260905134849 | 29 | 221 | 8.0 | 12.9 | 0.00 | 0.00 | 0.00 | 80 | 1014.4 |
| 20260905133817 | 28 | 210 | 9.7 | 14.5 | 0.00 | 0.00 | 0.00 | 80 | 1014.5 |
| 20260905132748 | 28 | 224 | 11.3 | 17.7 | 0.00 | 0.00 | 0.00 | 81 | 1014.6 |
| 20260905131809 | 28 | 221 | 11.3 | 17.7 | 0.00 | 0.00 | 0.00 | 81 | 1014.5 |
| 20260905124524 | 27 | 241 | 8.0 | 11.3 | 0.00 | 0.00 | 0.00 | 85 | 1014.3 |
| 20260905123518 | 27 | 215 | 8.0 | 9.7 | 0.00 | 0.00 | 0.00 | 86 | 1014.3 |
| 20260905122444 | 27 | 208 | 6.4 | 9.7 | 0.00 | 0.00 | 0.00 | 86 | 1014.4 |
| 20260905120330 | 27 | 236 | 4.8 | 8.0 | 0.00 | 0.00 | 0.00 | 86 | 1014.4 |
| 20260905114201 | 27 | 229 | 8.0 | 11.3 | 0.00 | 0.00 | 0.00 | 86 | 1014.0 |
| 20260905112010 | 27 | 211 | 9.7 | 11.3 | 0.00 | 0.00 | 0.00 | 85 | 1013.7 |
| 20260905110945 | 27 | 215 | 9.7 | 12.9 | 0.00 | 0.00 | 0.00 | 85 | 1013.5 |
| 20260905110006 | 27 | 219 | 9.7 | 12.9 | 0.00 | 0.00 | 0.00 | 85 | 1013.4 |
| 20260905105016 | 27 | 213 | 6.4 | 9.7 | 0.00 | 0.00 | 0.00 | 84 | 1013.4 |
| 20260905104032 | 27 | 223 | 4.8 | 8.0 | 0.00 | 0.00 | 0.00 | 84 | 1013.5 |
| 20260905102958 | 27 | 223 | 6.4 | 9.7 | 0.00 | 0.00 | 0.00 | 83 | 1013.4 |
| 20260905100853 | 27 | 211 | 6.4 | 9.7 | 0.00 | 0.00 | 0.00 | 83 | 1013.3 |
| 20260905095840 | 28 | 194 | 6.4 | 9.7 | 0.00 | 0.00 | 0.00 | 82 | 1013.4 |
| 20260905094836 | 28 | 193 | 8.0 | 14.5 | 0.00 | 0.00 | 0.00 | 83 | 1013.5 |
| 20260905093816 | 28 | 205 | 11.3 | 14.5 | 0.00 | 0.00 | 0.00 | 82 | 1013.4 |
| 20260905092819 | 28 | 188 | 8.0 | 12.9 | 0.00 | 0.00 | 0.00 | 82 | 1013.4 |
| 20260905091748 | 28 | 192 | 9.7 | 16.1 | 0.00 | 0.00 | 0.00 | 82 | 1013.3 |
| 20260905090720 | 28 | 0 | 8.0 | 14.5 | 0.00 | 0.00 | 0.00 | 82 | 1013.4 |
| 20260905084603 | 28 | 196 | 9.7 | 16.1 | 0.00 | 0.00 | 0.00 | 82 | 1013.2 |
| 20260905083529 | 28 | 205 | 11.3 | 16.1 | 0.00 | 0.00 | 0.00 | 82 | 1013.2 |
| 20260905082504 | 28 | 190 | 9.7 | 12.9 | 0.00 | 0.00 | 0.00 | 82 | 1013.3 |
| 20260905081435 | 28 | 202 | 9.7 | 12.9 | 0.00 | 0.00 | 0.00 | 82 | 1013.3 |
| 20260905080456 | 28 | 180 | 6.4 | 11.3 | 0.00 | 0.00 | 0.00 | 82 | 1013.4 |
| 20260905075459 | 28 | 196 | 8.0 | 11.3 | 0.00 | 0.00 | 0.00 | 82 | 1013.4 |
| 20260905073350 | 28 | 209 | 6.4 | 11.3 | 0.00 | 0.00 | 0.00 | 81 | 1013.4 |
| 20260905071306 | 28 | 209 | 11.3 | 14.5 | 0.00 | 0.00 | 0.00 | 81 | 1013.4 |
| 20260905070308 | 28 | 187 | 11.3 | 16.1 | 0.00 | 0.00 | 0.00 | 81 | 1013.3 |
| 20260905065234 | 28 | 211 | 12.9 | 16.1 | 0.00 | 0.00 | 0.00 | 80 | 1013.5 |
| 20260905064247 | 28 | 197 | 12.9 | 16.1 | 0.00 | 0.00 | 0.00 | 81 | 1013.6 |
| 20260905063236 | 28 | 201 | 14.5 | 19.3 | 0.00 | 0.00 | 0.00 | 80 | 1013.6 |
| 20260905061052 | 29 | 183 | 12.9 | 19.3 | 0.00 | 0.00 | 0.00 | 80 | 1013.8 |
| 20260905060037 | 29 | 155 | 11.3 | 19.3 | 0.00 | 0.00 | 0.00 | 79 | 1013.8 |
| 20260905055044 | 29 | 156 | 11.3 | 16.1 | 0.00 | 0.00 | 0.00 | 79 | 1014.0 |
| 20260905052942 | 29 | 157 | 11.3 | 17.7 | 0.00 | 0.00 | 0.00 | 79 | 1014.4 |
| 20260905051908 | 29 | 175 | 12.9 | 17.7 | 0.00 | 0.00 | 0.00 | 79 | 1014.4 |
| 20260905045725 | 29 | 194 | 9.7 | 14.5 | 0.00 | 0.00 | 0.00 | 79 | 1014.7 |
| 20260905044745 | 29 | 189 | 9.7 | 14.5 | 0.00 | 0.00 | 0.00 | 79 | 1014.8 |
| 20260905043802 | 29 | 194 | 6.4 | 14.5 | 0.00 | 0.00 | 0.00 | 79 | 1014.9 |
| 20260905042757 | 29 | 191 | 3.2 | 8.0 | 0.00 | 0.00 | 0.00 | 81 | 1015.0 |
| 20260905041802 | 29 | 201 | 3.2 | 8.0 | 0.00 | 0.00 | 0.00 | 81 | 1015.0 |
| 20260905040821 | 28 | 218 | 3.2 | 8.0 | 0.00 | 0.00 | 0.00 | 81 | 1015.2 |
| 20260905035752 | 28 | 225 | 4.8 | 6.4 | 0.00 | 0.00 | 0.00 | 81 | 1015.0 |
| 20260905034752 | 28 | 242 | 4.8 | 6.4 | 0.00 | 0.00 | 0.00 | 81 | 1014.9 |
| 20260905033721 | 28 | 243 | 4.8 | 6.4 | 0.00 | 0.00 | 0.00 | 80 | 1014.9 |